Regional Weather Roundup
Issued by NWS

Home | Current Version | Previous Version | Text Only | Print | Product List | Glossary On
Versions: 1 2 3 4 5 6 7 8 9 10 11 12 13 14 15 16 17 18 19 20 21 22 23 24 25 26 27 28 29 30 31 32 33 34 35 36 37 38 39 40 41 42 43 44 45 46 47 48 49 50
000
ASUS43 KMPX 200510
RWRMN
WEATHER ROUNDUP FOR MINNESOTA
NATIONAL WEATHER SERVICE TWIN CITIES/CHANHASSEN MN
1200 AM CDT SUN APR 20 2014


NOTE: "FAIR" INDICATES FEW OR NO CLOUDS BELOW 12,000 FEET WITH NO
SIGNIFICANT WEATHER AND/OR OBSTRUCTIONS TO VISIBILITY. N/A MEANS
CURRENT SKY AND/OR WEATHER CONDITIONS ARE NOT AVAILABLE.

MNZ060>063-068>070-200600-
   Twin Cities Metro

CITY           SKY/WX    TMP DP  RH WIND       PRES   REMARKS
TWIN CITIES    LGT RAIN  52  52 100 CALM      30.02S FOG
ST PAUL        LGT RAIN  53  53 100 CALM      30.02R VSB 3/4
CRYSTAL        CLOUDY    52  49  89 CALM      30.00S FOG
BLAINE         CLOUDY    54  50  87 CALM      30.01S
EDEN PRAIRIE   CLOUDY    54  52  93 W3        30.01R FOG
LAKEVILLE      HVY RAIN  54  54 100 CALM      30.02R
SOUTH ST PAUL  LGT RAIN  57  55  92 NW3       30.01F
LAKE ELMO      FOG       52  52 100 CALM      30.02S VSB 1/2
$$
MNZ001>005-007-008-013>017-022>024-027-028-200600-
   Northwest Minnesota

CITY           SKY/WX    TMP DP  RH WIND       PRES   REMARKS
BEMIDJI        CLEAR     40  35  82 W6        30.00R
HALLOCK        CLOUDY    37  36  93 CALM      29.99S
ROSEAU         CLEAR     39  34  81 W6        29.97S
WARROAD        CLEAR     39  34  81 W7        29.97S
THIEF RVR FALL CLEAR     41  34  75 W5        30.00S
CROOKSTON      CLEAR     39  34  81 NW7       30.01S
FOSSTON        CLEAR     37  32  81 CALM      30.01R
DETROIT LAKES  CLEAR     45  37  76 CALM      30.02S
MOORHEAD       CLEAR     43  39  87 VRB6      30.02S
PARK RAPIDS    CLEAR     40  32  73 NW7       29.99R
$$
MNZ006-009>011-018-025>026-200600-
   North Central Minnesota

CITY           SKY/WX    TMP DP  RH WIND       PRES   REMARKS
BAUDETTE       CLEAR     41  35  79 W3        29.96R
FLAG ISLAND    CLEAR     39  34  81 W10       29.94S
INTL FALLS     CLEAR     44  36  73 W6        29.94R
WASKISH        CLEAR     43  37  81 SW10      29.98R
BIG FORK       CLEAR     37  28  70 CALM      29.98R
LONGVILLE      CLEAR     34  30  86 CALM      29.97S
GRAND RAPIDS   CLEAR     39  36  87 S8        29.97S
CRANE LAKE     CLEAR     34  32  93 S5        29.97S WCI  30
ORR            CLEAR     45  37  76 CALM      29.95R
COOK           CLEAR     45  37  76 CALM      29.97R
$$
MNZ012-019>021-037-200600-
   Northeast Minnesota

CITY           SKY/WX    TMP DP  RH WIND       PRES   REMARKS
DULUTH         CLEAR     33  29  85 SE3       29.99F
ELY            CLEAR     41  36  81 S3        29.97S
HIBBING        CLEAR     34  31  88 CALM      29.97F
EVELETH        CLEAR     32  32 100 CALM      29.99F
DULUTH HARBOR  CLEAR     30  28  93 CALM      30.03F
TWO HARBORS    CLEAR     28  23  80 CALM      29.99S
SILVER BAY     CLEAR     27  27 100 CALM      29.99F
GRAND MARAIS     N/A     31  30  96 CALM      30.02F
G MARAIS ARPRT CLEAR     28  27  93 CALM      30.00F FOG
$$
MNZ029>031-032-039>041-046>048-054>057-064-200600-
   West Central Minnesota

CITY           SKY/WX    TMP DP  RH WIND       PRES   REMARKS
FERGUS FALLS   PTCLDY    50  34  53 N8        29.98R
WHEATON        PTCLDY    52  32  46 SW5       30.00S
MORRIS         PTCLDY    46  36  66 S8        29.99S
ALEXANDRIA     PTCLDY    48  32  53 S5        30.00S
ELBOW LAKE     FAIR      48  33  56 SE7       29.99S
WADENA         CLEAR     43  32  65 NW8       29.99R
GLENWOOD       CLEAR     48  37  66 SW5       30.01S
APPLETON       PTCLDY    48  36  61 CALM      30.00S
BENSON         PTCLDY    41  36  81 CALM      30.00S
ORTONVILLE     PTCLDY    52  30  43 SW5       30.00S
MADISON        PTCLDY    52  36  54 W3        30.01S
WILLMAR        FAIR      46  39  76 S3        30.02S
$$
MNZ033>034-036-042>043-049>051-058-059-200600-
   Central Minnesota

CITY           SKY/WX    TMP DP  RH WIND       PRES   REMARKS
ST CLOUD       FAIR      41  39  93 CALM      30.01R FOG
SAUK CENTRE    FAIR      45  36  71 CALM      30.01R
PAYNESVILLE    PTCLDY    40  36  86 CALM      30.02R
AITKIN         CLEAR     46  39  76 CALM      29.97F
PINE RIVER     CLEAR     37  32  81 CALM      30.01S
BRAINERD       CLEAR     42  33  70 CALM      29.99S
STAPLES        CLEAR     45  30  57 S5        29.98S
LONG PRAIRIE   FAIR      41  36  81 CALM      30.00S
LITTLE FALLS   CLEAR     45  36  70 CALM      30.00F
LITCHFIELD     MOCLDY    46  45  93 CALM      30.02S
BUFFALO        CLOUDY    47  43  85 CALM      30.02S
MAPLE LAKE     CLOUDY    43  41  95 CALM      30.02S FOG
$$
MNZ037-044-045-052-053-200600-
   East Central Minnesota

CITY           SKY/WX    TMP DP  RH WIND       PRES   REMARKS
PRINCETON      FOG       36  36 100 CALM      30.01S VSB 1/4
MORA           CLEAR     34  32  93 CALM      30.02S FOG
CAMBRIDGE      PTCLDY    37  30  75 CALM      29.99S HAZE
RUSH CITY      PTCLDY    37  35  91 CALM      30.01S
MOOSE LAKE     CLEAR     36  30  80 NE5       29.99S
HINCKLEY       FAIR      34  34 100 CALM      30.01R
CLOQUET        CLEAR     30  28  93 CALM      30.00S
MCGREGOR       CLEAR     39  37  93 CALM      29.99S
$$
MNZ071>073-080-081-089-090-097-098-200600-
   Southwest Minnesota

CITY           SKY/WX    TMP DP  RH WIND       PRES   REMARKS
MONTEVIDEO     PTCLDY    48  39  71 SW6       30.02S
GRANITE FALLS  PTCLDY    42  37  83 S5        30.03S
CANBY          PTCLDY    49  33  54 SW7       30.02S
MARSHALL       MOCLDY    50  36  57 S7        30.01S
REDWOOD FALLS  CLOUDY    54  45  71 S5        30.01S
OLIVIA         CLOUDY    50  45  81 S3        30.01S
PIPESTONE      CLOUDY    54  34  47 CALM      30.02F
WINDOM         MOCLDY    54  45  71 CALM      30.03S
WORTHINGTON    CLOUDY    55  43  62 NE3       30.05S
JACKSON        CLOUDY    54  46  76 NE5       30.03S
TRACY          CLOUDY    56  43  60 CALM      30.03R
SLAYTON        CLOUDY    54  41  60 CALM      30.04S
$$
MNZ065>067-074>077-082>085-091>093-200600-
   South Central Minnesota

CITY           SKY/WX    TMP DP  RH WIND       PRES   REMARKS
MANKATO        CLOUDY    55  50  82 N6        30.02S
NEW ULM          N/A     55  50  82 CALM      30.02S
ST JAMES       CLOUDY    55  48  76 CALM      30.03S
FAIRMONT       CLOUDY    55  48  76 MISG      30.03F
GLENCOE        CLOUDY    53  47  82 CALM      30.01S
FARIBAULT      CLOUDY    57  52  82 CALM      30.02S HAZE
OWATONNA       DRIZZLE   55  52  88 CALM      30.02R
WASECA         LGT RAIN  55  52  88 CALM      30.04R
ALBERT LEA     CLOUDY    64  45  48 S10       30.01S
$$
MNZ078>079-086>088-094>096-200600-
   Southeast Minnesota

CITY           SKY/WX    TMP DP  RH WIND       PRES   REMARKS
ROCHESTER      CLOUDY    60  45  57 S14       30.03S
RED WING       CLOUDY    54  52  94 CALM      30.00S
STANTON        DRIZZLE   54  52  91 CALM      30.00S
DODGE CENTER   CLOUDY    63  46  55 S15       30.01F
WINONA           N/A    N/A N/A N/A MISG        N/A
AUSTIN         CLOUDY    63  45  51 S9        30.03R
PRESTON        CLOUDY    61  44  54 S13G20    30.05F
$$
ABBREVIATIONS USED IN REMARKS
   TC - TEMPERATURES IN CELSIUS
  WCI - WIND CHILL INDEX
   HX - HEAT INDEX
  VSB - VISIBILITY
$$


USA.gov is the U.S. government's official web portal to all federal, state and local government web resources and services.